VOZ920 YBBN-NFFN

Flight info

Callsign VOZ920
Flight time N/A
Altitude 37000
Route GUMKI B578 TEBUR B602 ATPEN B599 ALBAB DCT MI
Aircraft B38M/M-SDE1FGHILORVWXY/HB1

Departure

Time N/A
Airport Brisbane International Airport (YBBN)

Arrival

Time 2026-05-08 09:40
Airport Nadi International Airport (NFFN)
Time Latitude Longitude Altitude Speed Heading
2026-05-08 09:19 -18.33806 175.80678 34542 ft 490 kts 77°
2026-05-08 09:19 -18.32866 175.84139 33637 ft 496 kts 77°
2026-05-08 09:19 -18.31887 175.87652 32720 ft 503 kts 76°
2026-05-08 09:20 -18.30882 175.91195 31798 ft 508 kts 76°
2026-05-08 09:20 -18.29878 175.94721 30874 ft 512 kts 76°
2026-05-08 09:20 -18.28990 175.97829 30057 ft 515 kts 76°
2026-05-08 09:20 -18.27956 176.01451 29095 ft 518 kts 76°
2026-05-08 09:21 -18.26916 176.05090 28120 ft 520 kts 76°
2026-05-08 09:21 -18.25874 176.08734 27146 ft 521 kts 76°
2026-05-08 09:22 -18.19919 176.29495 20784 ft 470 kts 75°
2026-05-08 09:23 -18.18991 176.32722 20312 ft 450 kts 75°
2026-05-08 09:23 -18.18106 176.35798 19943 ft 430 kts 75°
2026-05-08 09:23 -18.17257 176.38748 19529 ft 413 kts 75°
2026-05-08 09:23 -18.16437 176.41593 19125 ft 399 kts 75°
2026-05-08 09:24 -18.15647 176.44334 18726 ft 386 kts 75°
2026-05-08 09:24 -18.14880 176.46995 18348 ft 374 kts 75°
2026-05-08 09:24 -18.14148 176.49533 17985 ft 362 kts 75°
2026-05-08 09:24 -18.13428 176.52026 17622 ft 351 kts 75°
2026-05-08 09:25 -18.12729 176.54445 17273 ft 340 kts 75°
2026-05-08 09:25 -18.12053 176.56784 16938 ft 330 kts 75°
2026-05-08 09:25 -18.11395 176.59058 16595 ft 320 kts 75°
2026-05-08 09:25 -18.10750 176.61290 16277 ft 322 kts 75°
2026-05-08 09:26 -18.10091 176.63565 15934 ft 328 kts 75°
2026-05-08 09:26 -18.09423 176.65872 15590 ft 332 kts 75°
2026-05-08 09:26 -18.08751 176.68192 15252 ft 331 kts 75°
2026-05-08 09:26 -18.08090 176.70474 14924 ft 331 kts 75°
2026-05-08 09:27 -18.07419 176.72786 14578 ft 329 kts 75°
2026-05-08 09:27 -18.06755 176.75074 14249 ft 327 kts 75°
2026-05-08 09:27 -18.06094 176.77352 13915 ft 325 kts 75°
2026-05-08 09:27 -18.05437 176.79614 13590 ft 322 kts 75°
2026-05-08 09:28 -18.04789 176.81845 13494 ft 318 kts 75°
2026-05-08 09:28 -18.04140 176.84077 13521 ft 320 kts 75°
2026-05-08 09:28 -18.03491 176.86309 13426 ft 319 kts 75°
2026-05-08 09:28 -18.02836 176.88559 12838 ft 326 kts 75°
2026-05-08 09:29 -18.02171 176.90843 12188 ft 326 kts 74°
2026-05-08 09:29 -18.01519 176.93080 11618 ft 323 kts 74°
2026-05-08 09:29 -18.00868 176.95317 11193 ft 315 kts 74°
2026-05-08 09:29 -18.00237 176.97480 10880 ft 305 kts 74°
2026-05-08 09:30 -17.99609 176.99566 10571 ft 294 kts 71°
2026-05-08 09:30 -17.98916 177.01557 10236 ft 286 kts 71°
2026-05-08 09:30 -17.98241 177.03503 10070 ft 285 kts 71°
2026-05-08 09:30 -17.97560 177.05482 9827 ft 291 kts 71°
2026-05-08 09:31 -17.96874 177.07481 9513 ft 291 kts 71°
2026-05-08 09:31 -17.96198 177.09453 9197 ft 290 kts 71°
2026-05-08 09:31 -17.95516 177.11444 8879 ft 288 kts 71°
2026-05-08 09:31 -17.94839 177.13421 8564 ft 288 kts 71°
2026-05-08 09:32 -17.94164 177.15393 8274 ft 286 kts 71°
2026-05-08 09:32 -17.93492 177.17354 7967 ft 285 kts 71°
2026-05-08 09:32 -17.92822 177.19308 7663 ft 283 kts 71°
2026-05-08 09:32 -17.92156 177.21249 7356 ft 282 kts 71°
2026-05-08 09:33 -17.91496 177.23175 7048 ft 280 kts 70°
2026-05-08 09:33 -17.90843 177.25071 6757 ft 279 kts 71°
2026-05-08 09:33 -17.90190 177.26975 6449 ft 277 kts 71°
2026-05-08 09:33 -17.89538 177.28875 6142 ft 275 kts 70°
2026-05-08 09:34 -17.88889 177.30763 5848 ft 274 kts 71°
2026-05-08 09:34 -17.88212 177.32627 5579 ft 272 kts 63°
2026-05-08 09:34 -17.87219 177.34302 5494 ft 271 kts 63°
2026-05-08 09:34 -17.86490 177.36121 5479 ft 270 kts 72°
2026-05-08 09:35 -17.85899 177.37997 5456 ft 270 kts 73°
2026-05-08 09:35 -17.85573 177.39867 5367 ft 252 kts 94°
2026-05-08 09:35 -17.85822 177.41652 5325 ft 247 kts 102°
2026-05-08 09:35 -17.86166 177.43439 5108 ft 254 kts 103°
2026-05-08 09:36 -17.86519 177.45254 4671 ft 252 kts 103°
2026-05-08 09:36 -17.86810 177.47057 4231 ft 250 kts 92°
2026-05-08 09:36 -17.86419 177.48813 3826 ft 248 kts 61°
2026-05-08 09:36 -17.85256 177.50087 3582 ft 243 kts 31°
2026-05-08 09:37 -17.83683 177.50677 3345 ft 239 kts 14°
2026-05-08 09:37 -17.82075 177.51042 3069 ft 233 kts 13°
2026-05-08 09:37 -17.80512 177.51378 2780 ft 224 kts 13°
2026-05-08 09:37 -17.79070 177.51684 2557 ft 202 kts 13°
2026-05-08 09:38 -17.77761 177.51849 2227 ft 182 kts 353°
2026-05-08 09:38 -17.76674 177.51280 1663 ft 178 kts 310°
2026-05-08 09:38 -17.76350 177.50138 1221 ft 164 kts 263°
2026-05-08 09:38 -17.76436 177.48971 875 ft 160 kts 269°
2026-05-08 09:39 -17.76322 177.47804 589 ft 160 kts 282°
2026-05-08 09:39 -17.76047 177.46680 315 ft 158 kts 284°
2026-05-08 09:39 -17.75778 177.45574 89 ft 154 kts 283°
2026-05-08 09:39 -17.75544 177.44601 47 ft 107 kts 284°
2026-05-08 09:40 -17.75416 177.44076 48 ft 42 kts 284°
2026-05-08 09:40 -17.75394 177.43936 48 ft 2 kts 321°
2026-05-08 09:40 -17.75390 177.43936 48 ft 0 kts 353°
2026-05-08 09:41 -17.75385 177.43941 45 ft 2 kts 53°
2026-05-08 09:41 -17.75388 177.43956 48 ft 4 kts 104°
2026-05-08 09:41 -17.75406 177.44030 48 ft 18 kts 104°
2026-05-08 09:41 -17.75448 177.44205 48 ft 24 kts 104°
2026-05-08 09:42 -17.75446 177.44381 44 ft 26 kts 38°
2026-05-08 09:42 -17.75242 177.44544 44 ft 48 kts 38°
2026-05-08 09:42 -17.75120 177.44734 48 ft 26 kts 104°
2026-05-08 09:42 -17.75156 177.44922 49 ft 25 kts 77°
2026-05-08 09:43 -17.75060 177.44979 49 ft 16 kts 40°
2026-05-08 09:43 -17.75073 177.45061 49 ft 8 kts 161°
2026-05-08 09:43 -17.75110 177.45055 49 ft 6 kts 194°
2026-05-08 09:43 -17.75128 177.45051 49 ft 0 kts 193°